AFR111 EGKK-EBCI

Flight info

Callsign AFR111
Flight time 0h 51m
Altitude 23000
Route MIMFO Y312 DVR L9 KONAN UL607 KOK
Aircraft B736/M-SDE2E3FGHIRWXY/LB1

Departure

Time 2026-05-05 10:31
Airport London Gatwick Airport (EGKK)

Arrival

Time 2026-05-05 11:22
Airport Brussels South Charleroi Airport (EBCI)
Time Latitude Longitude Altitude Speed Heading
2026-05-05 10:01 51.15262 -0.19499 203 ft 0 kts 77°
2026-05-05 10:15 51.15262 -0.19501 203 ft 0 kts 78°
2026-05-05 10:16 51.15259 -0.19524 213 ft 3 kts 77°
2026-05-05 10:16 51.15255 -0.19553 211 ft 3 kts 77°
2026-05-05 10:16 51.15253 -0.19582 208 ft 3 kts 111°
2026-05-05 10:16 51.15264 -0.19605 214 ft 3 kts 154°
2026-05-05 10:17 51.15268 -0.19609 214 ft 0 kts 164°
2026-05-05 10:21 51.15262 -0.19607 215 ft 3 kts 167°
2026-05-05 10:22 51.15232 -0.19596 207 ft 6 kts 169°
2026-05-05 10:22 51.15179 -0.19592 203 ft 9 kts 180°
2026-05-05 10:22 51.15111 -0.19578 209 ft 10 kts 171°
2026-05-05 10:22 51.15041 -0.19567 204 ft 10 kts 189°
2026-05-05 10:23 51.15000 -0.19648 213 ft 10 kts 254°
2026-05-05 10:23 51.14986 -0.19754 204 ft 10 kts 257°
2026-05-05 10:23 51.14973 -0.19857 204 ft 9 kts 259°
2026-05-05 10:23 51.14957 -0.19956 203 ft 9 kts 256°
2026-05-05 10:24 51.14943 -0.20053 203 ft 9 kts 257°
2026-05-05 10:24 51.14930 -0.20148 203 ft 9 kts 257°
2026-05-05 10:24 51.14918 -0.20241 203 ft 9 kts 259°
2026-05-05 10:24 51.14893 -0.20427 203 ft 24 kts 258°
2026-05-05 10:25 51.14858 -0.20689 203 ft 23 kts 258°
2026-05-05 10:25 51.14825 -0.20937 211 ft 22 kts 258°
2026-05-05 10:25 51.14809 -0.21051 211 ft 0 kts 257°
2026-05-05 10:25 51.14808 -0.21057 210 ft 2 kts 256°
2026-05-05 10:26 51.14807 -0.21065 207 ft 0 kts 255°
2026-05-05 10:26 51.14806 -0.21068 207 ft 3 kts 255°
2026-05-05 10:26 51.14769 -0.21235 209 ft 23 kts 257°
2026-05-05 10:27 51.14722 -0.21393 206 ft 17 kts 190°
2026-05-05 10:27 51.14621 -0.21325 203 ft 0 kts 164°
2026-05-05 10:27 51.14616 -0.21323 203 ft 2 kts 165°
2026-05-05 10:28 51.14613 -0.21322 203 ft 5 kts 166°
2026-05-05 10:28 51.14520 -0.21178 202 ft 23 kts 91°
2026-05-05 10:28 51.14546 -0.20931 206 ft 22 kts 77°
2026-05-05 10:29 51.14553 -0.20884 211 ft 0 kts 76°
2026-05-05 10:29 51.14555 -0.20871 208 ft 2 kts 76°
2026-05-05 10:30 51.14559 -0.20846 210 ft 2 kts 77°
2026-05-05 10:30 51.14562 -0.20823 204 ft 2 kts 77°
2026-05-05 10:30 51.14624 -0.20364 210 ft 101 kts 77°
2026-05-05 10:30 51.14840 -0.18767 447 ft 182 kts 77°
2026-05-05 10:31 51.15098 -0.16662 1203 ft 188 kts 77°
2026-05-05 10:31 51.15344 -0.14732 2121 ft 180 kts 74°
2026-05-05 10:31 51.15614 -0.12805 3039 ft 177 kts 77°
2026-05-05 10:31 51.15828 -0.10829 2604 ft 185 kts 80°
2026-05-05 10:32 51.15993 -0.08926 2737 ft 174 kts 78°
2026-05-05 10:32 51.16235 -0.06959 2888 ft 186 kts 72°
2026-05-05 10:32 51.16559 -0.05031 3399 ft 175 kts 73°
2026-05-05 10:32 51.16933 -0.03202 3658 ft 180 kts 77°
2026-05-05 10:33 51.16893 -0.01176 3831 ft 189 kts 92°
2026-05-05 10:33 51.16823 0.01027 4402 ft 206 kts 90°
2026-05-05 10:33 51.16779 0.03267 5768 ft 200 kts 90°
2026-05-05 10:33 51.16736 0.05552 6759 ft 211 kts 90°
2026-05-05 10:34 51.16692 0.07926 7782 ft 219 kts 90°
2026-05-05 10:34 51.16646 0.10368 8871 ft 223 kts 91°
2026-05-05 10:34 51.16599 0.12867 9958 ft 227 kts 91°
2026-05-05 10:34 51.16553 0.15401 11073 ft 230 kts 90°
2026-05-05 10:35 51.16548 0.17926 12105 ft 232 kts 89°
2026-05-05 10:35 51.16558 0.20511 13141 ft 235 kts 89°
2026-05-05 10:35 51.16568 0.23133 14137 ft 238 kts 89°
2026-05-05 10:35 51.16576 0.25795 15031 ft 243 kts 89°
2026-05-05 10:36 51.16581 0.28518 15923 ft 247 kts 90°
2026-05-05 10:36 51.16584 0.31267 16827 ft 251 kts 90°
2026-05-05 10:36 51.16588 0.34073 17663 ft 256 kts 90°
2026-05-05 10:36 51.16591 0.36910 18064 ft 257 kts 90°
2026-05-05 10:37 51.16593 0.39771 18140 ft 260 kts 90°
2026-05-05 10:37 51.16594 0.42655 18162 ft 260 kts 90°
2026-05-05 10:37 51.16594 0.45575 18198 ft 275 kts 90°
2026-05-05 10:37 51.16593 0.48794 18422 ft 305 kts 90°
2026-05-05 10:38 51.16591 0.52332 18633 ft 333 kts 90°
2026-05-05 10:38 51.16588 0.56151 19047 ft 352 kts 91°
2026-05-05 10:38 51.16583 0.60087 19851 ft 356 kts 91°
2026-05-05 10:38 51.16578 0.64058 20741 ft 360 kts 91°
2026-05-05 10:39 51.16572 0.68076 21511 ft 366 kts 92°
2026-05-05 10:39 51.16564 0.72110 22311 ft 371 kts 92°
2026-05-05 10:39 51.16555 0.76250 22863 ft 374 kts 92°
2026-05-05 10:39 51.16545 0.80403 22985 ft 377 kts 92°
2026-05-05 10:40 51.16533 0.84605 22965 ft 378 kts 92°
2026-05-05 10:40 51.16520 0.88779 22973 ft 376 kts 92°
2026-05-05 10:40 51.16505 0.92946 22977 ft 376 kts 92°
2026-05-05 10:40 51.16488 0.97110 22978 ft 376 kts 92°
2026-05-05 10:41 51.16470 1.01289 22976 ft 376 kts 92°
2026-05-05 10:41 51.16450 1.05402 22970 ft 376 kts 92°
2026-05-05 10:41 51.16429 1.09568 22971 ft 376 kts 92°
2026-05-05 10:41 51.16406 1.13734 22972 ft 376 kts 92°
2026-05-05 10:42 51.16357 1.22067 22970 ft 376 kts 92°
2026-05-05 10:42 51.16331 1.26237 22972 ft 376 kts 92°
2026-05-05 10:42 51.16302 1.30402 22965 ft 376 kts 92°
2026-05-05 10:43 51.16272 1.34560 22967 ft 376 kts 93°
2026-05-05 10:43 51.16186 1.38719 22965 ft 375 kts 95°
2026-05-05 10:43 51.16005 1.42866 22967 ft 376 kts 97°
2026-05-05 10:43 51.15784 1.47125 22990 ft 398 kts 97°
2026-05-05 10:44 51.15542 1.51638 22980 ft 417 kts 97°
2026-05-05 10:44 51.15302 1.56252 22961 ft 419 kts 97°
2026-05-05 10:44 51.15070 1.60897 22955 ft 420 kts 96°
2026-05-05 10:44 51.14844 1.65455 22944 ft 417 kts 97°
2026-05-05 10:45 51.14617 1.70069 22953 ft 418 kts 96°
2026-05-05 10:45 51.14387 1.74696 22950 ft 419 kts 96°
2026-05-05 10:45 51.14155 1.79335 22952 ft 420 kts 96°
2026-05-05 10:45 51.13921 1.83974 22947 ft 419 kts 96°
2026-05-05 10:46 51.13688 1.88587 22945 ft 418 kts 96°
2026-05-05 10:46 51.13453 1.93197 22954 ft 419 kts 96°
2026-05-05 10:46 51.13211 1.97838 22955 ft 421 kts 97°
2026-05-05 10:46 51.12969 2.02478 22957 ft 421 kts 97°
2026-05-05 10:47 51.12724 2.07126 22951 ft 421 kts 97°
2026-05-05 10:47 51.12478 2.11764 22946 ft 420 kts 97°
2026-05-05 10:47 51.12229 2.16393 22946 ft 421 kts 96°
2026-05-05 10:47 51.11978 2.21028 22945 ft 418 kts 97°
2026-05-05 10:48 51.11729 2.25608 22941 ft 416 kts 97°
2026-05-05 10:48 51.11476 2.30196 22954 ft 417 kts 97°
2026-05-05 10:48 51.11221 2.34817 22952 ft 420 kts 97°
2026-05-05 10:48 51.10997 2.38830 22941 ft 418 kts 97°
2026-05-05 10:49 51.10741 2.43438 22942 ft 418 kts 97°
2026-05-05 10:49 51.10483 2.48042 22943 ft 418 kts 96°
2026-05-05 10:49 51.10222 2.52647 22942 ft 417 kts 97°
2026-05-05 10:49 51.09959 2.57249 22944 ft 419 kts 97°
2026-05-05 10:50 51.09693 2.61849 22937 ft 417 kts 97°
2026-05-05 10:50 51.09523 2.66461 22931 ft 418 kts 91°
2026-05-05 10:50 51.09703 2.71082 22954 ft 418 kts 88°
2026-05-05 10:50 51.09951 2.75701 22944 ft 420 kts 87°
2026-05-05 10:51 51.10215 2.80342 22948 ft 422 kts 86°
2026-05-05 10:51 51.10479 2.84991 22940 ft 422 kts 87°
2026-05-05 10:51 51.10733 2.89644 22945 ft 421 kts 87°
2026-05-05 10:51 51.10977 2.94286 22949 ft 422 kts 87°
2026-05-05 10:52 51.11213 2.98950 22944 ft 422 kts 87°
2026-05-05 10:52 51.11444 3.03611 22938 ft 421 kts 86°
2026-05-05 10:52 51.11668 3.08204 22939 ft 421 kts 87°
2026-05-05 10:52 51.11893 3.12871 22832 ft 423 kts 87°
2026-05-05 10:53 51.12116 3.17515 22692 ft 420 kts 86°
2026-05-05 10:53 51.12337 3.22134 22551 ft 415 kts 87°
2026-05-05 10:53 51.12551 3.26631 22230 ft 402 kts 88°
2026-05-05 10:53 51.12758 3.31052 21713 ft 397 kts 87°
2026-05-05 10:54 51.12960 3.35403 21221 ft 391 kts 88°
2026-05-05 10:54 51.13156 3.39671 20726 ft 383 kts 88°
2026-05-05 10:54 51.13348 3.43861 20250 ft 376 kts 88°
2026-05-05 10:54 51.13535 3.47984 19780 ft 369 kts 88°
2026-05-05 10:55 51.13716 3.52033 19315 ft 364 kts 88°
2026-05-05 10:55 51.13885 3.56033 18862 ft 361 kts 88°
2026-05-05 10:55 51.14060 3.59961 18389 ft 358 kts 88°
2026-05-05 10:55 51.14238 3.63897 17854 ft 354 kts 88°
2026-05-05 10:56 51.14411 3.67791 17296 ft 351 kts 87°
2026-05-05 10:56 51.14579 3.71648 16745 ft 347 kts 87°
2026-05-05 10:56 51.14743 3.75464 16205 ft 344 kts 87°
2026-05-05 10:56 51.14903 3.79245 15675 ft 341 kts 86°
2026-05-05 10:57 51.15061 3.82991 15155 ft 337 kts 86°
2026-05-05 10:57 51.15217 3.86701 14642 ft 334 kts 86°
2026-05-05 10:57 51.15371 3.90384 14141 ft 331 kts 86°
2026-05-05 10:57 51.15523 3.94041 13637 ft 329 kts 86°
2026-05-05 10:58 51.15671 3.97662 13079 ft 327 kts 86°
2026-05-05 10:58 51.15816 4.01219 12540 ft 325 kts 86°
2026-05-05 10:58 51.15651 4.04785 11978 ft 325 kts 104°
2026-05-05 10:58 51.14655 4.07985 11458 ft 325 kts 126°
2026-05-05 10:59 51.12988 4.10385 10956 ft 325 kts 148°
2026-05-05 10:59 51.10882 4.11652 10437 ft 326 kts 170°
2026-05-05 10:59 51.09385 4.11782 10103 ft 326 kts 183°
2026-05-05 10:59 51.06505 4.10444 9403 ft 323 kts 206°
2026-05-05 11:00 51.05173 4.09386 9037 ft 322 kts 207°
2026-05-05 11:00 51.03191 4.07735 8498 ft 321 kts 207°
2026-05-05 11:00 51.01219 4.06104 7943 ft 319 kts 207°
2026-05-05 11:00 50.99241 4.04496 7431 ft 317 kts 206°
2026-05-05 11:01 50.97313 4.02948 7064 ft 302 kts 206°
2026-05-05 11:01 50.95497 4.01494 6910 ft 284 kts 206°
2026-05-05 11:01 50.93666 4.00528 6720 ft 275 kts 183°
2026-05-05 11:01 50.91820 4.00914 6555 ft 264 kts 158°
2026-05-05 11:02 50.90236 4.02307 6392 ft 258 kts 141°
2026-05-05 11:02 50.88841 4.04042 6229 ft 259 kts 138°
2026-05-05 11:02 50.87441 4.05871 6062 ft 262 kts 138°
2026-05-05 11:02 50.86035 4.07713 5848 ft 262 kts 138°
2026-05-05 11:03 50.84642 4.09534 5650 ft 255 kts 138°
2026-05-05 11:03 50.83287 4.11300 5422 ft 253 kts 137°
2026-05-05 11:03 50.81916 4.13076 5195 ft 255 kts 138°
2026-05-05 11:03 50.80532 4.14861 4965 ft 257 kts 138°
2026-05-05 11:04 50.79151 4.16633 4706 ft 257 kts 138°
2026-05-05 11:04 50.77770 4.18404 4438 ft 251 kts 138°
2026-05-05 11:04 50.76438 4.20105 4178 ft 242 kts 138°
2026-05-05 11:04 50.75138 4.21766 3976 ft 241 kts 138°
2026-05-05 11:05 50.73828 4.23441 3933 ft 242 kts 138°
2026-05-05 11:05 50.72526 4.25099 3917 ft 239 kts 138°
2026-05-05 11:05 50.71231 4.26747 3912 ft 238 kts 138°
2026-05-05 11:05 50.69962 4.28360 3899 ft 235 kts 138°
2026-05-05 11:06 50.68581 4.29743 3917 ft 238 kts 154°
2026-05-05 11:06 50.67034 4.30703 3918 ft 235 kts 156°
2026-05-05 11:06 50.65554 4.31593 3886 ft 220 kts 156°
2026-05-05 11:06 50.64167 4.32434 3689 ft 207 kts 155°
2026-05-05 11:07 50.62851 4.33243 3368 ft 201 kts 155°
2026-05-05 11:07 50.61556 4.34047 2995 ft 201 kts 155°
2026-05-05 11:07 50.60264 4.34848 2704 ft 198 kts 155°
2026-05-05 11:07 50.58984 4.35646 2456 ft 198 kts 155°
2026-05-05 11:08 50.57725 4.36430 2417 ft 191 kts 155°
2026-05-05 11:08 50.56521 4.37182 2408 ft 187 kts 155°
2026-05-05 11:08 50.55294 4.37951 2432 ft 193 kts 154°
2026-05-05 11:08 50.54054 4.38728 2422 ft 191 kts 154°
2026-05-05 11:09 50.52816 4.39500 2431 ft 191 kts 155°
2026-05-05 11:09 50.51579 4.40272 2428 ft 190 kts 155°
2026-05-05 11:09 50.50363 4.41031 2305 ft 183 kts 154°
2026-05-05 11:09 50.49176 4.41773 2007 ft 184 kts 154°
2026-05-05 11:10 50.47995 4.42509 2036 ft 177 kts 155°
2026-05-05 11:10 50.46883 4.43213 2022 ft 169 kts 150°
2026-05-05 11:10 50.46117 4.44429 2021 ft 150 kts 109°
2026-05-05 11:10 50.46044 4.45993 2009 ft 141 kts 69°
2026-05-05 11:11 50.46440 4.47366 2020 ft 142 kts 64°
2026-05-05 11:11 50.46846 4.48772 2012 ft 140 kts 63°
2026-05-05 11:11 50.47242 4.50137 2006 ft 135 kts 63°
2026-05-05 11:11 50.47626 4.51447 2009 ft 131 kts 64°
2026-05-05 11:12 50.48017 4.52778 2023 ft 137 kts 63°
2026-05-05 11:12 50.48415 4.54127 2007 ft 134 kts 63°
2026-05-05 11:12 50.48804 4.55442 2015 ft 133 kts 64°
2026-05-05 11:12 50.49196 4.56761 2025 ft 132 kts 64°
2026-05-05 11:13 50.49586 4.58071 2010 ft 131 kts 64°
2026-05-05 11:13 50.49973 4.59367 2025 ft 132 kts 64°
2026-05-05 11:13 50.50372 4.60706 2029 ft 137 kts 63°
2026-05-05 11:13 50.50781 4.62045 2003 ft 133 kts 63°
2026-05-05 11:14 50.51170 4.63353 2013 ft 133 kts 63°
2026-05-05 11:14 50.51581 4.64667 2010 ft 135 kts 64°
2026-05-05 11:14 50.51967 4.65979 2008 ft 132 kts 58°
2026-05-05 11:14 50.52532 4.67124 2015 ft 130 kts 45°
2026-05-05 11:15 50.53244 4.67995 2016 ft 132 kts 33°
2026-05-05 11:15 50.54089 4.68590 2020 ft 134 kts 19°
2026-05-05 11:15 50.55003 4.68852 2020 ft 134 kts
2026-05-05 11:15 50.55956 4.68764 2019 ft 139 kts 354°
2026-05-05 11:16 50.56889 4.68326 2013 ft 142 kts 341°
2026-05-05 11:16 50.57752 4.67553 2013 ft 144 kts 328°
2026-05-05 11:16 50.58491 4.66486 2014 ft 146 kts 315°
2026-05-05 11:16 50.59074 4.65166 2014 ft 148 kts 303°
2026-05-05 11:17 50.59469 4.63648 2020 ft 151 kts 289°
2026-05-05 11:17 50.59544 4.61991 1931 ft 155 kts 251°
2026-05-05 11:17 50.58826 4.60849 2061 ft 145 kts 201°
2026-05-05 11:17 50.57880 4.60504 2843 ft 120 kts 181°
2026-05-05 11:18 50.57134 4.60407 2879 ft 116 kts 177°
2026-05-05 11:18 50.56195 4.60501 2398 ft 142 kts 168°
2026-05-05 11:18 50.55220 4.60640 2049 ft 142 kts 169°
2026-05-05 11:18 50.54269 4.60842 1912 ft 138 kts 167°
2026-05-05 11:19 50.53305 4.61086 1837 ft 139 kts 164°
2026-05-05 11:19 50.52315 4.61324 1698 ft 147 kts 172°
2026-05-05 11:19 50.51326 4.61268 1789 ft 136 kts 183°
2026-05-05 11:19 50.50399 4.61026 1848 ft 138 kts 191°
2026-05-05 11:20 50.49565 4.60174 1725 ft 149 kts 234°
2026-05-05 11:20 50.49183 4.58644 1520 ft 142 kts 256°
2026-05-05 11:20 50.48886 4.57253 1589 ft 130 kts 252°
2026-05-05 11:20 50.48541 4.55882 1458 ft 140 kts 255°
2026-05-05 11:21 50.48223 4.54419 1431 ft 141 kts 254°
2026-05-05 11:21 50.47975 4.52951 1465 ft 136 kts 259°
2026-05-05 11:21 50.47704 4.51527 1503 ft 138 kts 257°
2026-05-05 11:21 50.47381 4.50037 1312 ft 149 kts 248°
2026-05-05 11:22 50.46956 4.48613 927 ft 139 kts 249°
2026-05-05 11:22 50.46559 4.47301 731 ft 130 kts 251°
2026-05-05 11:22 50.46225 4.46096 586 ft 109 kts 245°
2026-05-05 11:22 50.46044 4.45483 594 ft 33 kts 245°
2026-05-05 11:23 50.45946 4.45143 597 ft 34 kts 245°
2026-05-05 11:23 50.45883 4.44893 602 ft 20 kts 269°
2026-05-05 11:23 50.45926 4.44793 602 ft 0 kts 333°
2026-05-05 11:23 50.45927 4.44792 602 ft 0 kts 333°
2026-05-05 11:24 50.45931 4.44789 602 ft 1 kts 334°
2026-05-05 11:24 50.45938 4.44784 602 ft 1 kts 336°
2026-05-05 11:24 50.45947 4.44778 602 ft 2 kts 336°
2026-05-05 11:24 50.45964 4.44768 602 ft 4 kts 345°
2026-05-05 11:25 50.46001 4.44783 601 ft 8 kts 31°
2026-05-05 11:25 50.46048 4.44879 600 ft 14 kts 66°
2026-05-05 11:25 50.46095 4.45045 598 ft 19 kts 66°
2026-05-05 11:25 50.46152 4.45240 596 ft 20 kts 65°
2026-05-05 11:26 50.46211 4.45443 593 ft 20 kts 65°
2026-05-05 11:26 50.46268 4.45639 591 ft 19 kts 66°
2026-05-05 11:26 50.46324 4.45833 589 ft 20 kts 66°
2026-05-05 11:26 50.46385 4.46036 586 ft 21 kts 65°
2026-05-05 11:27 50.46448 4.46252 584 ft 21 kts 65°
2026-05-05 11:27 50.46500 4.46438 582 ft 18 kts 66°
2026-05-05 11:27 50.46550 4.46615 580 ft 17 kts 62°
2026-05-05 11:27 50.46599 4.46785 581 ft 17 kts 64°
2026-05-05 11:28 50.46649 4.46947 580 ft 16 kts 64°
2026-05-05 11:28 50.46695 4.47105 578 ft 16 kts 66°
2026-05-05 11:28 50.46739 4.47256 579 ft 15 kts 66°
2026-05-05 11:28 50.46798 4.47349 577 ft 13 kts 358°
2026-05-05 11:29 50.46868 4.47341 577 ft 5 kts 32°
2026-05-05 11:29 50.46891 4.47378 577 ft 3 kts 33°
2026-05-05 11:29 50.46911 4.47367 577 ft 4 kts 340°
2026-05-05 11:29 50.46941 4.47347 579 ft 0 kts 336°